Погода в Пунта-Але

Италия     42°48′16″N   10°45′51″E
темп.,
°C
ветер,
м/с
пор.,
м/с
влажн.,
%
обл.,
%
осадки,
мм/ч
давл.,
гПа
погр.,
м
14 мая, пт
пт1423:00+15всв326365 0.0 100887
02:00+15в337037 0.0 1009151
05:00+14вюв557620 0.1 1009219
08:00+14вюв5677100 0.1 1010300
11:00+16юв8970100 0.0 1010754
14:00+16ююв81073100 0.0 1010862
17:00+14ююв91193100 5.8 1009782
20:00+14ю6792100 22.7 1009551
15 мая, сб
сб1523:00+13всв5788100 6.8 1010660
02:00+13всв228188 6.9 1011331
05:00+13с227977 0.0 1011288
08:00+13ссв228198 0.0 1012282
11:00+14зсз2379100 0.0 1013330
14:00+15зсз3373100 0.0 1013327
17:00+16юз1167100 0.0 1013262
20:00+17ююв4568100 0.0 1012423
16 мая, вс
вс1623:00+16вюв567477 0.0 1011383
02:00+16вюв5678100 0.0 1010229
05:00+15вюв6684100 0.0 1009272
08:00+16вюв798997 0.0 1010402
11:00+17вюв778860 0.0 1011416
14:00+17юв898942 0.0 1011378
17:00+17юв898512 0.0 1010294
20:00+18юв8118282 0.0 1009339
17 мая, пн
пн1723:00+17в6887100 0.0 1010242
02:00+17вюв6789100 0.0 1010239
05:00+17юв78919 0.0 1009230
08:00+17юв79917 0.0 1010328
11:00+17юв6790100 0.0 1011239
14:00+18юв448594 0.0 1011108
17:00+18ююв448017 0.0 101072
20:00+18в33744 0.0 101134
18 мая, вт
вт1823:00+18св35635 0.0 101186
02:00+16в33615 0.0 101266
05:00+17всв2358100 0.0 101288
08:00+17зсз13146418 0.0 1013551
11:00+17з3574100 0.0 1014376
14:00+17юз45690 0.0 1015478
17:00+17сз54720 0.0 1015590
20:00+17с786920 0.0 1016415